When you browse on this site, cookies collect data to enhance your experience and personalize the content and advertising you see.
Visit our Privacy Policy to learn more. By continuing to use the site, you agree to this use of cookies and data.
  • In Lithuania
  • List of Countries
  • For 7 days
  • Water Temperature
  • Weather Map
  • Weather Widgets
  • user-avatar
    Login

    Hourly Weather Banfora

    Today, 28 February, Friday

    Time Temperature Precipitation Wind Pressure Humidity
    00:00 +28°C° 0 mm 2 mps 732 mmHg 16%
    01:00 +27°C° 0 mm 2 mps 732 mmHg 16%
    02:00 +27°C° 0 mm 2 mps 732 mmHg 16%
    03:00 +26°C° 0 mm 3 mps 731 mmHg 16%
    04:00 +25°C° 0 mm 2 mps 732 mmHg 16%
    05:00 +25°C° 0 mm 2 mps 732 mmHg 16%
    06:00 +24°C° 0 mm 2 mps 732 mmHg 17%
    07:00 +26°C° 0 mm 2 mps 733 mmHg 15%
    08:00 +28°C° 0 mm 3 mps 734 mmHg 13%
    09:00 +31°C° 0 mm 3 mps 735 mmHg 11%
    10:00 +34°C° 0 mm 3 mps 734 mmHg 10%
    11:00 +37°C° 0 mm 3 mps 734 mmHg 9%
    12:00 +40°C° 0 mm 4 mps 733 mmHg 8%
    13:00 +40°C° 0 mm 3 mps 733 mmHg 7%
    14:00 +42°C° 0 mm 2 mps 732 mmHg 7%
    15:00 +43°C° 0 mm 1 mps 731 mmHg 7%
    16:00 +41°C° 0 mm 1 mps 731 mmHg 8%
    17:00 +39°C° 0 mm 1 mps 731 mmHg 9%
    18:00 +34°C° 0 mm 0 mps 730 mmHg 10%
    19:00 +34°C° 0 mm 1 mps 731 mmHg 11%
    20:00 +32°C° 0 mm 1 mps 732 mmHg 12%
    21:00 +30°C° 0 mm 1 mps 732 mmHg 13%
    22:00 +30°C° 0 mm 1 mps 732 mmHg 14%
    23:00 +29°C° 0 mm 1 mps 732 mmHg 14%

    Tomorrow, 29 February, Saturday

    Time Temperature Precipitation Wind Pressure Humidity
    00:00 +28°C° 0 mm 1 mps 732 mmHg 15%
    01:00 +28°C° 0 mm 1 mps 732 mmHg 15%
    02:00 +27°C° 0 mm 1 mps 732 mmHg 16%
    03:00 +26°C° 0 mm 2 mps 731 mmHg 16%
    04:00 +26°C° 0 mm 1 mps 731 mmHg 17%
    05:00 +25°C° 0 mm 1 mps 731 mmHg 18%
    06:00 +24°C° 0 mm 1 mps 731 mmHg 18%
    07:00 +27°C° 0 mm 1 mps 732 mmHg 16%
    08:00 +29°C° 0 mm 1 mps 733 mmHg 14%
    09:00 +32°C° 0 mm 2 mps 734 mmHg 12%
    10:00 +35°C° 0 mm 2 mps 733 mmHg 10%
    11:00 +38°C° 0 mm 3 mps 733 mmHg 9%
    12:00 +42°C° 0 mm 3 mps 732 mmHg 7%
    13:00 +43°C° 0 mm 3 mps 732 mmHg 7%
    14:00 +43°C° 0 mm 2 mps 731 mmHg 7%
    15:00 +43°C° 0 mm 2 mps 730 mmHg 6%
    16:00 +42°C° 0 mm 2 mps 730 mmHg 7%
    17:00 +40°C° 0 mm 1 mps 730 mmHg 8%
    18:00 +39°C° 0 mm 1 mps 729 mmHg 9%
    19:00 +35°C° 0 mm 1 mps 730 mmHg 10%
    20:00 +33°C° 0 mm 1 mps 730 mmHg 11%
    21:00 +29°C° 0 mm 0 mps 731 mmHg 12%
    22:00 +30°C° 0 mm 1 mps 731 mmHg 13%
    23:00 +29°C° 0 mm 1 mps 731 mmHg 13%

    Day after tomorrow, 1 March, Sunday

    Time Temperature Precipitation Wind Pressure Humidity
    00:00 +29°C° 0 mm 1 mps 731 mmHg 14%
    01:00 +28°C° 0 mm 1 mps 731 mmHg 14%
    02:00 +27°C° 0 mm 1 mps 730 mmHg 14%
    03:00 +27°C° 0 mm 1 mps 730 mmHg 14%
    04:00 +26°C° 0 mm 1 mps 730 mmHg 15%
    05:00 +26°C° 0 mm 1 mps 730 mmHg 15%
    06:00 +25°C° 0 mm 1 mps 731 mmHg 15%
    07:00 +27°C° 0 mm 1 mps 731 mmHg 13%
    08:00 +30°C° 0 mm 2 mps 732 mmHg 12%
    09:00 +32°C° 0 mm 2 mps 733 mmHg 10%
    10:00 +36°C° 0 mm 2 mps 733 mmHg 9%
    11:00 +38°C° 0 mm 3 mps 732 mmHg 7%
    12:00 +42°C° 0 mm 3 mps 732 mmHg 6%
    13:00 +43°C° 0 mm 3 mps 731 mmHg 6%
    14:00 +43°C° 0 mm 3 mps 730 mmHg 6%
    15:00 +43°C° 0 mm 2 mps 729 mmHg 6%
    16:00 +42°C° 0 mm 2 mps 729 mmHg 7%
    17:00 +40°C° 0 mm 1 mps 729 mmHg 8%
    18:00 +37°C° 0 mm 1 mps 729 mmHg 9%
    19:00 +35°C° 0 mm 1 mps 730 mmHg 10%
    20:00 +33°C° 0 mm 1 mps 730 mmHg 11%
    21:00 +31°C° 0 mm 1 mps 731 mmHg 12%
    22:00 +30°C° 0 mm 1 mps 731 mmHg 14%
    23:00 +29°C° 0 mm 1 mps 731 mmHg 16%

    2 March, Monday

    Time Temperature Precipitation Wind Pressure Humidity
    00:00 +28°C° 0 mm 1 mps 731 mmHg 18%
    01:00 +28°C° 0 mm 1 mps 731 mmHg 26%
    02:00 +27°C° 0 mm 1 mps 731 mmHg 35%
    03:00 +26°C° 0 mm 1 mps 731 mmHg 43%
    04:00 +26°C° 0 mm 1 mps 731 mmHg 48%
    05:00 +25°C° 0 mm 1 mps 731 mmHg 53%
    06:00 +25°C° 0 mm 1 mps 732 mmHg 58%
    07:00 +27°C° 0 mm 1 mps 732 mmHg 55%
    08:00 +29°C° 0 mm 1 mps 733 mmHg 52%
    09:00 +31°C° 0 mm 1 mps 734 mmHg 48%
    10:00 +35°C° 0 mm 2 mps 734 mmHg 42%
    11:00 +38°C° 0 mm 2 mps 733 mmHg 36%
    12:00 +40°C° 0 mm 2 mps 733 mmHg 30%
    13:00 +42°C° 0 mm 2 mps 732 mmHg 25%
    14:00 +43°C° 0 mm 1 mps 731 mmHg 20%
    15:00 +44°C° 0 mm 1 mps 730 mmHg 16%
    16:00 +42°C° 0 mm 1 mps 730 mmHg 18%
    17:00 +40°C° 0 mm 1 mps 730 mmHg 19%
    18:00 +37°C° 0 mm 1 mps 730 mmHg 21%
    19:00 +36°C° 0 mm 1 mps 731 mmHg 23%
    20:00 +35°C° 0 mm 1 mps 731 mmHg 25%
    21:00 +32°C° 0 mm 0 mps 732 mmHg 27%
    22:00 +31°C° 0 mm 0 mps 732 mmHg 28%
    23:00 +30°C° 0 mm 0 mps 732 mmHg 29%

    3 March, Tuesday

    Time Temperature Precipitation Wind Pressure Humidity
    00:00 +29°C° 0 mm 0 mps 732 mmHg 31%
    01:00 +28°C° 0 mm 0 mps 731 mmHg 32%
    02:00 +28°C° 0 mm 0 mps 731 mmHg 34%
    03:00 +29°C° 0 mm 1 mps 731 mmHg 35%
    04:00 +28°C° 0 mm 1 mps 731 mmHg 39%
    05:00 +28°C° 0 mm 1 mps 731 mmHg 43%
    06:00 +27°C° 0 mm 1 mps 731 mmHg 47%
    07:00 +29°C° 0 mm 2 mps 732 mmHg 48%
    08:00 +30°C° 0 mm 2 mps 733 mmHg 49%
    09:00 +33°C° 0 mm 3 mps 734 mmHg 50%
    10:00 +36°C° 0 mm 2 mps 734 mmHg 43%
    11:00 +39°C° 0 mm 2 mps 733 mmHg 35%
    12:00 +42°C° 0 mm 2 mps 733 mmHg 28%
    13:00 +42°C° 0 mm 1 mps 732 mmHg 25%
    14:00 +42°C° 0 mm 1 mps 731 mmHg 22%
    15:00 +43°C° 0 mm 1 mps 730 mmHg 19%
    16:00 +42°C° 0 mm 1 mps 730 mmHg 21%
    17:00 +40°C° 0 mm 2 mps 730 mmHg 22%
    18:00 +39°C° 0 mm 2 mps 731 mmHg 24%
    19:00 +37°C° 0 mm 2 mps 731 mmHg 29%
    20:00 +34°C° 0 mm 1 mps 731 mmHg 34%
    21:00 +32°C° 0 mm 1 mps 732 mmHg 39%
    22:00 +31°C° 0 mm 1 mps 732 mmHg 41%
    23:00 +30°C° 0 mm 1 mps 732 mmHg 43%

    4 March, Wednesday

    Time Temperature Precipitation Wind Pressure Humidity
    00:00 +30°C° 0 mm 1 mps 732 mmHg 45%
    01:00 +29°C° 0 mm 1 mps 732 mmHg 48%
    02:00 +29°C° 0 mm 1 mps 732 mmHg 50%
    03:00 +26°C° 0 mm 0 mps 731 mmHg 53%
    04:00 +28°C° 0 mm 1 mps 732 mmHg 56%
    05:00 +27°C° 0 mm 1 mps 732 mmHg 59%
    06:00 +27°C° 0 mm 1 mps 732 mmHg 62%
    07:00 +28°C° 0 mm 2 mps 733 mmHg 59%
    08:00 +30°C° 0 mm 2 mps 733 mmHg 56%
    09:00 +33°C° 0 mm 3 mps 734 mmHg 54%
    10:00 +36°C° 0 mm 2 mps 734 mmHg 45%
    11:00 +39°C° 0 mm 2 mps 733 mmHg 36%
    12:00 +42°C° 0 mm 1 mps 733 mmHg 27%
    13:00 +42°C° 0 mm 1 mps 732 mmHg 24%
    14:00 +43°C° 0 mm 1 mps 731 mmHg 21%
    15:00 +43°C° 0 mm 1 mps 730 mmHg 18%
    16:00 +41°C° 0 mm 1 mps 730 mmHg 20%
    17:00 +40°C° 0 mm 1 mps 730 mmHg 21%
    18:00 +39°C° 0 mm 1 mps 730 mmHg 22%
    19:00 +36°C° 0 mm 1 mps 731 mmHg 28%
    20:00 +34°C° 0 mm 1 mps 731 mmHg 33%
    21:00 +32°C° 0 mm 1 mps 731 mmHg 38%
    22:00 +31°C° 0 mm 1 mps 731 mmHg 41%
    23:00 +30°C° 0 mm 1 mps 731 mmHg 45%
    Show more